Flag for Canada Weather past 2 weeks in Markham, Ontario, Canada

Now
37 °F

Passing clouds.


Feels Like: 29 °F
Forecast: 34 / 52 °F
Wind: 13 mph from North

Location: Toronto Buttonville

Current Time: Apr 26, 2015 at 6:20:19 AM

Latest Report: Apr 26, 2015 at 6:00 AM


Visibility: 15 mi

Pressure: 29.83 "Hg

Humidity: 75%

Dew point: 30 °F

Location of MarkhamLocation

Historic Weather in Markham — Graph

°F

Markham temperature yesterday

Maximum temperature yesterday: 50 °F (at 2:00 PM)
Minimum temperature yesterday: 27 °F (at 6:00 AM)
Average temperature yesterday: 40 °F

Past Weeks' High & Low Weather Summary

 TemperatureHumidityPressure
High73 °F (Apr 13, 4:00 PM)100% (Apr 14, 5:00 AM)30.42 "Hg (Apr 14, 5:00 AM)
Low27 °F (Apr 25, 6:00 AM)20% (Apr 14, 4:00 PM)29.38 "Hg (Apr 20, 6:00 PM)
Average46 °F60%29.98 "Hg
* Reported Apr 11 5:00 AM — Apr 26 5:00 AM, Markham, Weather by CustomWeather, © 2015

Note: Actual official high and low records may vary slightly from our data, if they occured in-between our weather recording intervals... More about our weather records

Advertising

Markham weather history for previous 24 hours

 ConditionsComfort  
Time TempWeatherWind HumidityBarometerVisibility
5:00 AM
Sun, Apr 26
39 °FPassing clouds.10 mph70%29.82 "Hg15 mi
4:00 AM37 °FPassing clouds.10 mph70%29.81 "Hg15 mi
3:00 AM37 °FPassing clouds.8 mph70%29.80 "Hg15 mi
2:00 AM37 °FPassing clouds.10 mph70%29.81 "Hg15 mi
1:00 AM39 °FPassing clouds.12 mph65%29.82 "Hg15 mi
12:00 AM39 °FPassing clouds.9 mph61%29.82 "Hg15 mi
11:00 PM
Sat, Apr 25
39 °FPassing clouds.7 mph61%29.83 "Hg15 mi
10:00 PM41 °FClear.7 mph57%29.84 "Hg15 mi
9:00 PM45 °FPassing clouds.10 mph49%29.84 "Hg15 mi
8:00 PM48 °FPassing clouds.10 mph43%29.82 "Hg15 mi
7:00 PM50 °FPassing clouds.9 mph40%29.81 "Hg15 mi
6:00 PM50 °FScattered clouds.8 mph40%29.82 "Hg15 mi
5:00 PM50 °FPartly sunny.8 mph43%29.82 "Hg15 mi
4:00 PM50 °FPartly sunny.8 mph43%29.84 "Hg15 mi
3:00 PM50 °FScattered clouds.2 mph43%29.86 "Hg15 mi
2:00 PM50 °FScattered clouds.6 mph43%29.89 "Hg15 mi
1:00 PM46 °FPassing clouds.8 mph43%29.93 "Hg15 mi
12:00 PM45 °FPassing clouds.12 mph46%29.96 "Hg15 mi
11:00 AM43 °FPassing clouds.12 mph46%29.98 "Hg15 mi
10:00 AM41 °FPassing clouds.7 mph53%29.98 "Hg15 mi
9:00 AM39 °FPassing clouds.7 mph56%29.99 "Hg15 mi
8:00 AM34 °FPassing clouds.7 mph70%30.00 "Hg15 mi
7:00 AM28 °FPassing clouds.No wind80%30.01 "Hg15 mi
6:00 AM27 °FPassing clouds.2 mph86%30.00 "Hg15 mi
Weather by CustomWeather, © 2015

See weather overviewHow to use our weather pages